When you browse on this site, cookies collect data to enhance your experience and personalize the content and advertising you see.
Visit our Privacy Policy to learn more. By continuing to use the site, you agree to this use of cookies and data.
  • en Suisse
  • Liste des pays
  • À 7 jours
  • Température de l'eau
  • Carte météo
  • Widgets météo
  • user-avatar
    Se connecter

    Météo par heure à Novograd-Volynski

    Ce jour, 25 Février, Mardi

    Heure Température Précipitation Vent Pression Humidité
    00:00 -1°C° 0 mm 5 m/s 739 mmHg 85%
    01:00 -2°C° 0 mm 4 m/s 739 mmHg 87%
    02:00 -1°C° 0 mm 3 m/s 739 mmHg 89%
    03:00 -1°C° 0 mm 3 m/s 738 mmHg 90%
    04:00 -1°C° 0 mm 3 m/s 738 mmHg 91%
    05:00 -1°C° 0 mm 2 m/s 737 mmHg 91%
    06:00 -1°C° 0 mm 3 m/s 737 mmHg 90%
    07:00 0°C° 0 mm 3 m/s 737 mmHg 89%
    08:00 -1°C° 0 mm 4 m/s 737 mmHg 87%
    09:00 -1°C° 0.1 mm 4 m/s 736 mmHg 90%
    10:00 -1°C° 0.1 mm 5 m/s 736 mmHg 92%
    11:00 -2°C° 0.1 mm 6 m/s 735 mmHg 95%
    12:00 -1°C° 0.1 mm 6 m/s 735 mmHg 95%
    13:00 0°C° 0.1 mm 5 m/s 734 mmHg 95%
    14:00 0°C° 0.1 mm 5 m/s 734 mmHg 96%
    15:00 +1°C° 0.1 mm 5 m/s 733 mmHg 94%
    16:00 +1°C° 0.1 mm 5 m/s 733 mmHg 92%
    17:00 +1°C° 0.1 mm 5 m/s 732 mmHg 90%
    18:00 +2°C° 0.1 mm 5 m/s 732 mmHg 87%
    19:00 +2°C° 0.1 mm 5 m/s 732 mmHg 85%
    20:00 +3°C° 0.1 mm 4 m/s 732 mmHg 83%
    21:00 +3°C° 0.3 mm 4 m/s 731 mmHg 85%
    22:00 +3°C° 0.3 mm 4 m/s 731 mmHg 87%
    23:00 +3°C° 0.3 mm 4 m/s 731 mmHg 89%

    Demain, 26 Février, Mercredi

    Heure Température Précipitation Vent Pression Humidité
    00:00 +3°C° 0.1 mm 4 m/s 730 mmHg 88%
    01:00 +3°C° 0.1 mm 4 m/s 730 mmHg 87%
    02:00 +4°C° 0.1 mm 4 m/s 729 mmHg 86%
    03:00 +4°C° 0.1 mm 4 m/s 729 mmHg 86%
    04:00 +4°C° 0.1 mm 4 m/s 728 mmHg 87%
    05:00 +4°C° 0.1 mm 4 m/s 727 mmHg 87%
    06:00 +4°C° 0.1 mm 4 m/s 727 mmHg 85%
    07:00 +4°C° 0.1 mm 4 m/s 727 mmHg 83%
    08:00 +4°C° 0.1 mm 4 m/s 727 mmHg 80%
    09:00 +5°C° 0.3 mm 4 m/s 727 mmHg 84%
    10:00 +5°C° 0.3 mm 3 m/s 727 mmHg 87%
    11:00 +5°C° 0.3 mm 3 m/s 727 mmHg 90%
    12:00 +5°C° 0.7 mm 3 m/s 726 mmHg 91%
    13:00 +6°C° 0.7 mm 2 m/s 726 mmHg 92%
    14:00 +6°C° 0.7 mm 2 m/s 726 mmHg 94%
    15:00 +6°C° 0.7 mm 2 m/s 725 mmHg 95%
    16:00 +6°C° 0.7 mm 2 m/s 725 mmHg 95%
    17:00 +6°C° 0.7 mm 2 m/s 724 mmHg 96%
    18:00 +6°C° 0.3 mm 2 m/s 725 mmHg 96%
    19:00 +6°C° 0.3 mm 2 m/s 725 mmHg 96%
    20:00 +6°C° 0.3 mm 2 m/s 725 mmHg 95%
    21:00 +5°C° 0.1 mm 2 m/s 725 mmHg 96%
    22:00 +4°C° 0.1 mm 3 m/s 725 mmHg 96%
    23:00 +3°C° 0.1 mm 3 m/s 725 mmHg 96%

    Après-demain, 27 Février, Jeudi

    Heure Température Précipitation Vent Pression Humidité
    00:00 +3°C° 0 mm 3 m/s 725 mmHg 95%
    01:00 +3°C° 0 mm 3 m/s 726 mmHg 94%
    02:00 +3°C° 0 mm 3 m/s 726 mmHg 93%
    03:00 +2°C° 0 mm 3 m/s 726 mmHg 91%
    04:00 +1°C° 0 mm 4 m/s 726 mmHg 89%
    05:00 +1°C° 0 mm 4 m/s 726 mmHg 87%
    06:00 0°C° 0 mm 4 m/s 727 mmHg 84%
    07:00 0°C° 0 mm 4 m/s 727 mmHg 81%
    08:00 0°C° 0 mm 3 m/s 728 mmHg 78%
    09:00 0°C° 0 mm 4 m/s 728 mmHg 75%
    10:00 +1°C° 0 mm 4 m/s 728 mmHg 72%
    11:00 +2°C° 0 mm 5 m/s 728 mmHg 69%
    12:00 +2°C° 0 mm 5 m/s 729 mmHg 66%
    13:00 +2°C° 0 mm 5 m/s 729 mmHg 64%
    14:00 +2°C° 0 mm 5 m/s 729 mmHg 62%
    15:00 +2°C° 0 mm 5 m/s 729 mmHg 63%
    16:00 +3°C° 0 mm 4 m/s 729 mmHg 64%
    17:00 +1°C° 0 mm 4 m/s 729 mmHg 66%
    18:00 +1°C° 0 mm 4 m/s 730 mmHg 68%
    19:00 0°C° 0 mm 4 m/s 730 mmHg 70%
    20:00 -1°C° 0 mm 4 m/s 730 mmHg 72%
    21:00 0°C° 0 mm 3 m/s 731 mmHg 75%
    22:00 -1°C° 0 mm 3 m/s 731 mmHg 78%
    23:00 -1°C° 0 mm 3 m/s 731 mmHg 81%

    28 Février, Vendredi

    Heure Température Précipitation Vent Pression Humidité
    00:00 -2°C° 0 mm 3 m/s 731 mmHg 81%
    01:00 -2°C° 0 mm 2 m/s 731 mmHg 81%
    02:00 -2°C° 0 mm 2 m/s 731 mmHg 81%
    03:00 -2°C° 0 mm 2 m/s 731 mmHg 81%
    04:00 -2°C° 0 mm 2 m/s 731 mmHg 80%
    05:00 -2°C° 0 mm 2 m/s 731 mmHg 79%
    06:00 -1°C° 0 mm 2 m/s 731 mmHg 78%
    07:00 -1°C° 0 mm 2 m/s 731 mmHg 76%
    08:00 -1°C° 0 mm 2 m/s 731 mmHg 74%
    09:00 0°C° 0 mm 3 m/s 731 mmHg 70%
    10:00 +2°C° 0 mm 3 m/s 731 mmHg 66%
    11:00 +3°C° 0 mm 3 m/s 731 mmHg 62%
    12:00 +3°C° 0.1 mm 3 m/s 731 mmHg 59%
    13:00 +4°C° 0.1 mm 3 m/s 731 mmHg 57%
    14:00 +4°C° 0.1 mm 3 m/s 731 mmHg 54%
    15:00 +4°C° 0.1 mm 2 m/s 731 mmHg 62%
    16:00 +3°C° 0.1 mm 2 m/s 731 mmHg 71%
    17:00 +3°C° 0.1 mm 1 m/s 731 mmHg 79%
    18:00 +2°C° 0.1 mm 2 m/s 731 mmHg 83%
    19:00 +1°C° 0.1 mm 2 m/s 732 mmHg 86%
    20:00 +1°C° 0.1 mm 2 m/s 732 mmHg 90%
    21:00 +1°C° 0.1 mm 2 m/s 733 mmHg 91%
    22:00 +1°C° 0.1 mm 2 m/s 733 mmHg 92%
    23:00 -1°C° 0.1 mm 2 m/s 733 mmHg 93%

    29 Février, Samedi

    Heure Température Précipitation Vent Pression Humidité
    00:00 -1°C° 0 mm 3 m/s 734 mmHg 93%
    01:00 -2°C° 0 mm 4 m/s 734 mmHg 93%
    02:00 -2°C° 0 mm 4 m/s 734 mmHg 93%
    03:00 -2°C° 0 mm 4 m/s 735 mmHg 92%
    04:00 -2°C° 0 mm 4 m/s 735 mmHg 92%
    05:00 -2°C° 0 mm 4 m/s 735 mmHg 91%
    06:00 -2°C° 0 mm 5 m/s 736 mmHg 88%
    07:00 -2°C° 0 mm 5 m/s 736 mmHg 85%
    08:00 -2°C° 0 mm 5 m/s 737 mmHg 82%
    09:00 -1°C° 0 mm 5 m/s 737 mmHg 77%
    10:00 -1°C° 0 mm 5 m/s 737 mmHg 72%
    11:00 0°C° 0 mm 5 m/s 737 mmHg 67%
    12:00 0°C° 0 mm 5 m/s 737 mmHg 70%
    13:00 0°C° 0 mm 5 m/s 737 mmHg 73%
    14:00 0°C° 0 mm 4 m/s 737 mmHg 76%
    15:00 0°C° 0.1 mm 4 m/s 737 mmHg 75%
    16:00 +1°C° 0.1 mm 3 m/s 737 mmHg 74%
    17:00 +1°C° 0.1 mm 3 m/s 737 mmHg 74%
    18:00 0°C° 0 mm 3 m/s 737 mmHg 78%
    19:00 0°C° 0 mm 3 m/s 737 mmHg 82%
    20:00 -1°C° 0 mm 3 m/s 737 mmHg 86%
    21:00 -1°C° 0 mm 3 m/s 737 mmHg 85%
    22:00 -1°C° 0 mm 3 m/s 737 mmHg 84%
    23:00 -2°C° 0 mm 3 m/s 737 mmHg 83%

    1 Mars, Dimanche

    Heure Température Précipitation Vent Pression Humidité
    00:00 -1°C° 0 mm 3 m/s 736 mmHg 82%
    01:00 -1°C° 0 mm 3 m/s 736 mmHg 81%
    02:00 -1°C° 0 mm 3 m/s 736 mmHg 79%
    03:00 -1°C° 0 mm 3 m/s 735 mmHg 77%
    04:00 -1°C° 0 mm 4 m/s 735 mmHg 74%
    05:00 -1°C° 0 mm 4 m/s 735 mmHg 72%
    06:00 -1°C° 0.1 mm 4 m/s 735 mmHg 76%
    07:00 -1°C° 0.1 mm 4 m/s 734 mmHg 81%
    08:00 -1°C° 0.1 mm 4 m/s 734 mmHg 85%
    09:00 0°C° 0 mm 5 m/s 734 mmHg 84%
    10:00 +1°C° 0 mm 5 m/s 734 mmHg 83%
    11:00 +2°C° 0 mm 5 m/s 734 mmHg 82%
    12:00 +1°C° 0.3 mm 4 m/s 734 mmHg 86%
    13:00 +1°C° 0.3 mm 4 m/s 734 mmHg 90%
    14:00 0°C° 0.3 mm 4 m/s 734 mmHg 94%
    15:00 0°C° 0.8 mm 4 m/s 734 mmHg 95%
    16:00 +1°C° 0.8 mm 3 m/s 734 mmHg 96%
    17:00 +1°C° 0.8 mm 3 m/s 734 mmHg 97%
    18:00 +1°C° 0.2 mm 3 m/s 734 mmHg 97%
    19:00 +1°C° 0.2 mm 3 m/s 734 mmHg 97%
    20:00 +1°C° 0.2 mm 3 m/s 735 mmHg 96%
    21:00 +2°C° 0 mm 2 m/s 735 mmHg 95%
    22:00 +2°C° 0 mm 2 m/s 735 mmHg 94%
    23:00 +2°C° 0 mm 2 m/s 735 mmHg 92%
    Voir plus